Time,TemperatureF,DewpointF,PressureIn,WindDirection,WindDirectionDegrees,WindSpeedMPH,WindSpeedGustMPH,Humidity,HourlyPrecipIn,Conditions,Clouds,dailyrainin,SoftwareType,DateUTC
2013-02-10 00:01:00,47.7,34.9,30.25,WSW,249,1.0,7.0,61,0.00,CLR,,0.00,WeatherDisplay:10.37,2013-02-10 05:01:00,
2013-02-10 00:11:00,47.7,34.9,30.25,SW,217,0.0,5.0,61,0.00,CLR,,0.00,WeatherDisplay:10.37,2013-02-10 05:11:00,
2013-02-10 00:21:00,47.3,35.7,30.26,SW,217,1.0,3.0,64,0.00,CLR,,0.00,WeatherDisplay:10.37,2013-02-10 05:21:00,
2013-02-10 00:31:00,47.1,33.9,30.26,SW,217,1.0,4.0,60,0.00,CLR,,0.00,WeatherDisplay:10.37,2013-02-10 05:31:00,
2013-02-10 00:40:00,47.0,33.8,30.25,SW,217,2.0,4.0,60,0.00,CLR,,0.00,WeatherDisplay:10.37,2013-02-10 05:40:00,
2013-02-10 00:50:00,47.0,33.8,30.26,SW,234,2.0,6.0,60,0.00,CLR,,0.00,WeatherDisplay:10.37,2013-02-10 05:50:00,
2013-02-10 01:00:00,46.9,33.7,30.26,WSW,242,0.0,5.0,60,0.00,CLR,,0.00,WeatherDisplay:10.37,2013-02-10 06:00:00,
2013-02-10 01:10:00,46.7,33.5,30.26,WSW,245,0.0,1.0,60,0.00,CLR,,0.00,WeatherDisplay:10.37,2013-02-10 06:10:00,
2013-02-10 01:20:00,46.3,33.6,30.26,WSW,245,0.0,1.0,61,0.00,CLR,,0.00,WeatherDisplay:10.37,2013-02-10 06:20:00,
2013-02-10 01:30:00,45.9,34.4,30.26,WSW,245,0.0,1.0,64,0.00,CLR,,0.00,WeatherDisplay:10.37,2013-02-10 06:30:00,
2013-02-10 01:40:00,45.9,34.0,30.26,WSW,245,0.0,3.0,63,0.00,CLR,,0.00,WeatherDisplay:10.37,2013-02-10 06:40:00,
2013-02-10 01:50:00,45.9,33.6,30.25,WSW,245,0.0,1.0,62,0.00,CLR,,0.00,WeatherDisplay:10.37,2013-02-10 06:50:00,
2013-02-10 02:00:00,45.7,33.4,30.24,WSW,245,0.0,2.0,62,0.00,CLR,,0.00,WeatherDisplay:10.37,2013-02-10 07:00:00,
2013-02-10 02:10:00,45.8,32.7,30.25,WSW,245,0.0,2.0,60,0.00,CLR,,0.00,WeatherDisplay:10.37,2013-02-10 07:10:00,
2013-02-10 02:20:00,46.7,32.3,30.26,West,263,1.0,5.0,57,0.00,CLR,,0.00,WeatherDisplay:10.37,2013-02-10 07:20:00,
2013-02-10 02:30:00,47.4,32.5,30.26,SW,235,1.0,5.0,56,0.00,CLR,,0.00,WeatherDisplay:10.37,2013-02-10 07:30:00,
2013-02-10 02:40:00,47.3,32.8,30.25,SW,229,2.0,4.0,57,0.00,CLR,,0.00,WeatherDisplay:10.37,2013-02-10 07:40:00,
2013-02-10 02:50:00,47.7,32.7,30.26,SSW,213,2.0,6.0,56,0.00,CLR,,0.00,WeatherDisplay:10.37,2013-02-10 07:50:00,
2013-02-10 03:00:00,48.0,32.6,30.25,SW,225,0.0,5.0,55,0.00,CLR,,0.00,WeatherDisplay:10.37,2013-02-10 08:00:00,
2013-02-10 03:10:00,48.1,32.2,30.25,South,187,2.0,5.0,54,0.00,CLR,,0.00,WeatherDisplay:10.37,2013-02-10 08:10:00,
2013-02-10 03:20:00,48.2,32.4,30.25,South,186,0.0,5.0,54,0.00,CLR,,0.00,WeatherDisplay:10.37,2013-02-10 08:20:00,
2013-02-10 03:30:00,48.2,32.3,30.25,WSW,244,1.0,2.0,54,0.00,CLR,,0.00,WeatherDisplay:10.37,2013-02-10 08:30:00,
2013-02-10 03:40:00,48.4,32.9,30.25,WSW,249,1.0,6.0,55,0.00,CLR,,0.00,WeatherDisplay:10.37,2013-02-10 08:40:00,
2013-02-10 03:50:00,48.1,33.1,30.25,SW,228,0.0,6.0,56,0.00,CLR,,0.00,WeatherDisplay:10.37,2013-02-10 08:50:00,
2013-02-10 04:00:00,48.0,32.6,30.24,SW,223,1.0,4.0,55,0.00,CLR,,0.00,WeatherDisplay:10.37,2013-02-10 09:00:00,
2013-02-10 04:10:00,47.8,32.4,30.24,SW,223,1.0,4.0,55,0.00,CLR,,0.00,WeatherDisplay:10.37,2013-02-10 09:10:00,
2013-02-10 04:20:00,47.8,32.9,30.24,SW,223,0.0,4.0,56,0.00,CLR,,0.00,WeatherDisplay:10.37,2013-02-10 09:20:00,
2013-02-10 04:30:00,47.4,32.9,30.24,SW,223,2.0,4.0,57,0.00,CLR,,0.00,WeatherDisplay:10.37,2013-02-10 09:30:00,
2013-02-10 04:40:00,47.4,32.5,30.24,SW,223,1.0,4.0,56,0.00,CLR,,0.00,WeatherDisplay:10.37,2013-02-10 09:40:00,
2013-02-10 04:50:00,47.3,32.8,30.24,SSW,208,0.0,7.0,57,0.00,CLR,,0.00,WeatherDisplay:10.37,2013-02-10 09:50:00,
2013-02-10 05:00:00,47.3,32.8,30.24,SSW,210,0.0,2.0,57,0.00,CLR,,0.00,WeatherDisplay:10.37,2013-02-10 10:00:00,
2013-02-10 05:10:00,47.3,32.8,30.24,SW,224,3.0,6.0,57,0.00,CLR,,0.00,WeatherDisplay:10.37,2013-02-10 10:10:00,
2013-02-10 05:20:00,47.6,33.1,30.25,SSW,213,1.0,4.0,57,0.00,CLR,,0.00,WeatherDisplay:10.37,2013-02-10 10:20:00,
2013-02-10 05:30:00,47.6,33.1,30.25,SW,219,2.0,5.0,57,0.00,CLR,,0.00,WeatherDisplay:10.37,2013-02-10 10:30:00,
2013-02-10 05:40:00,47.4,32.9,30.25,SW,231,5.0,7.0,57,0.00,CLR,,0.00,WeatherDisplay:10.37,2013-02-10 10:40:00,
2013-02-10 05:50:00,47.5,33.0,30.25,SW,228,5.0,7.0,57,0.00,CLR,,0.00,WeatherDisplay:10.37,2013-02-10 10:50:00,
2013-02-10 06:00:00,47.6,33.1,30.25,SW,222,3.0,8.0,57,0.00,CLR,,0.00,WeatherDisplay:10.37,2013-02-10 11:00:00,
2013-02-10 06:10:00,47.6,33.1,30.26,SW,232,5.0,8.0,57,0.00,CLR,,0.00,WeatherDisplay:10.37,2013-02-10 11:10:00,
2013-02-10 06:20:00,47.6,33.1,30.26,SW,232,5.0,9.0,57,0.00,CLR,,0.00,WeatherDisplay:10.37,2013-02-10 11:20:00,
2013-02-10 06:30:00,47.6,33.1,30.25,SW,228,5.0,8.0,57,0.00,CLR,,0.00,WeatherDisplay:10.37,2013-02-10 11:30:00,
2013-02-10 06:40:00,47.7,32.7,30.25,SW,225,5.0,9.0,56,0.00,CLR,,0.00,WeatherDisplay:10.37,2013-02-10 11:40:00,
2013-02-10 06:50:00,48.0,32.6,30.25,SSW,206,7.0,12.0,55,0.00,CLR,,0.00,WeatherDisplay:10.37,2013-02-10 11:50:00,
2013-02-10 07:00:00,48.3,32.4,30.25,SW,217,3.0,8.0,54,0.00,CLR,,0.00,WeatherDisplay:10.37,2013-02-10 12:00:00,
2013-02-10 07:10:00,48.2,31.4,30.25,SSW,209,5.0,10.0,52,0.00,CLR,,0.00,WeatherDisplay:10.37,2013-02-10 12:10:00,
2013-02-10 07:20:00,48.3,31.0,30.24,SSW,203,5.0,9.0,51,0.00,CLR,,0.00,WeatherDisplay:10.37,2013-02-10 12:20:00,
2013-02-10 07:30:00,48.2,29.9,30.23,South,182,5.0,10.0,49,0.00,CLR,,0.00,WeatherDisplay:10.37,2013-02-10 12:30:00,
2013-02-10 07:40:00,48.0,29.7,30.24,SSW,210,5.0,12.0,49,0.00,CLR,,0.00,WeatherDisplay:10.37,2013-02-10 12:40:00,
2013-02-10 07:50:00,48.1,29.3,30.24,South,187,3.0,10.0,48,0.00,CLR,,0.00,WeatherDisplay:10.37,2013-02-10 12:50:00,
2013-02-10 08:00:00,47.9,29.6,30.25,SSW,210,2.0,9.0,49,0.00,CLR,,0.00,WeatherDisplay:10.37,2013-02-10 13:00:00,
2013-02-10 08:10:00,47.8,30.1,30.26,South,188,2.0,8.0,50,0.00,CLR,,0.00,WeatherDisplay:10.37,2013-02-10 13:10:00,
2013-02-10 08:20:00,48.0,30.7,30.26,SSW,213,5.0,8.0,51,0.00,CLR,,0.00,WeatherDisplay:10.37,2013-02-10 13:20:00,
2013-02-10 08:30:00,48.6,30.8,30.27,South,188,5.0,9.0,50,0.00,CLR,,0.00,WeatherDisplay:10.37,2013-02-10 13:30:00,
2013-02-10 08:40:00,49.2,31.8,30.28,South,184,6.0,13.0,51,0.00,CLR,,0.00,WeatherDisplay:10.37,2013-02-10 13:40:00,
2013-02-10 08:50:00,49.7,32.3,30.27,South,190,6.0,12.0,51,0.00,CLR,,0.00,WeatherDisplay:10.37,2013-02-10 13:50:00,
2013-02-10 09:00:00,49.6,32.2,30.27,South,179,2.0,14.0,51,0.00,CLR,,0.00,WeatherDisplay:10.37,2013-02-10 14:00:00,
2013-02-10 09:10:00,49.5,32.6,30.27,South,186,9.0,14.0,52,0.00,CLR,,0.00,WeatherDisplay:10.37,2013-02-10 14:10:00,
2013-02-10 09:20:00,49.4,32.5,30.26,South,179,8.0,15.0,52,0.00,CLR,,0.00,WeatherDisplay:10.37,2013-02-10 14:20:00,
2013-02-10 09:30:00,49.5,33.1,30.26,South,183,8.0,18.0,53,0.00,CLR,,0.00,WeatherDisplay:10.37,2013-02-10 14:30:00,
2013-02-10 09:40:00,49.7,32.8,30.25,SSW,194,3.0,15.0,52,0.00,CLR,,0.00,WeatherDisplay:10.37,2013-02-10 14:40:00,
2013-02-10 09:50:00,50.4,33.4,30.26,South,179,7.0,20.0,52,0.00,CLR,,0.00,WeatherDisplay:10.37,2013-02-10 14:50:00,
2013-02-10 10:00:00,50.8,32.8,30.26,South,182,8.0,15.0,50,0.00,CLR,,0.00,WeatherDisplay:10.37,2013-02-10 15:00:00,
2013-02-10 10:10:00,51.2,32.2,30.25,South,186,8.0,20.0,48,0.00,CLR,,0.00,WeatherDisplay:10.37,2013-02-10 15:10:00,
2013-02-10 10:20:00,51.4,31.8,30.24,South,185,9.0,17.0,47,0.00,BKN,,0.00,WeatherDisplay:10.37,2013-02-10 15:20:00,
2013-02-10 10:30:00,51.6,32.0,30.24,South,184,9.0,16.0,47,0.00,BKN,,0.00,WeatherDisplay:10.37,2013-02-10 15:30:00,
2013-02-10 10:40:00,52.1,31.9,30.24,SSW,201,7.0,17.0,46,0.00,OVC,,0.00,WeatherDisplay:10.37,2013-02-10 15:40:00,
2013-02-10 10:50:00,52.5,31.7,30.23,SSW,196,6.0,18.0,45,0.00,OVC,,0.00,WeatherDisplay:10.37,2013-02-10 15:50:00,
2013-02-10 11:00:00,52.9,31.0,30.24,South,190,7.0,21.0,43,0.00,OVC,,0.00,WeatherDisplay:10.37,2013-02-10 16:00:00,
2013-02-10 11:10:00,53.5,31.5,30.23,SSW,194,7.0,15.0,43,0.00,OVC,,0.00,WeatherDisplay:10.37,2013-02-10 16:10:00,
2013-02-10 11:20:00,53.8,30.6,30.22,South,183,12.0,21.0,41,0.00,OVC,,0.00,WeatherDisplay:10.37,2013-02-10 16:20:00,
2013-02-10 11:30:00,54.4,31.1,30.21,South,173,9.0,20.0,41,0.00,OVC,,0.00,WeatherDisplay:10.37,2013-02-10 16:30:00,
2013-02-10 11:40:00,54.8,31.5,30.19,South,173,5.0,15.0,41,0.00,OVC,,0.00,WeatherDisplay:10.37,2013-02-10 16:40:00,
2013-02-10 11:50:00,54.8,29.7,30.20,SSE,168,6.0,24.0,38,0.00,BKN,,0.00,WeatherDisplay:10.37,2013-02-10 16:50:00,
2013-02-10 12:00:00,55.1,29.3,30.20,South,179,14.0,25.0,37,0.00,BKN,,0.00,WeatherDisplay:10.37,2013-02-10 17:00:00,
2013-02-10 12:10:00,55.6,29.1,30.20,SSE,164,16.0,21.0,36,0.00,SCT,,0.00,WeatherDisplay:10.37,2013-02-10 17:10:00,
2013-02-10 12:20:00,55.6,29.0,30.18,SSE,157,5.0,25.0,36,0.00,SCT,,0.00,WeatherDisplay:10.37,2013-02-10 17:20:00,
2013-02-10 12:30:00,56.0,29.4,30.16,SSE,167,6.0,18.0,36,0.00,SCT,,0.00,WeatherDisplay:10.37,2013-02-10 17:30:00,
2013-02-10 12:40:00,55.7,30.5,30.17,SSE,168,5.0,24.0,38,0.00,BKN,,0.00,WeatherDisplay:10.37,2013-02-10 17:40:00,
2013-02-10 12:50:00,55.7,32.3,30.16,South,191,12.0,21.0,41,0.00,OVC,,0.00,WeatherDisplay:10.37,2013-02-10 17:50:00,
2013-02-10 13:00:00,56.0,33.8,30.15,South,183,10.0,22.0,43,0.00,OVC,,0.00,WeatherDisplay:10.37,2013-02-10 18:00:00,
2013-02-10 13:10:00,56.3,35.8,30.14,South,181,6.0,27.0,46,0.00,OVC,,0.00,WeatherDisplay:10.37,2013-02-10 18:10:00,
2013-02-10 13:20:00,56.1,36.2,30.15,South,175,8.0,20.0,47,0.00,OVC,,0.00,WeatherDisplay:10.37,2013-02-10 18:20:00,
2013-02-10 13:30:00,55.9,37.0,30.13,SSW,196,12.0,25.0,49,0.00,OVC,,0.00,WeatherDisplay:10.37,2013-02-10 18:30:00,
2013-02-10 13:40:00,55.8,37.4,30.13,South,183,10.0,24.0,50,0.00,OVC,,0.00,WeatherDisplay:10.37,2013-02-10 18:40:00,
2013-02-10 13:50:00,55.9,38.0,30.13,South,170,7.0,23.0,51,0.00,OVC,,0.00,WeatherDisplay:10.37,2013-02-10 18:50:00,
2013-02-10 14:00:00,55.8,38.9,30.13,South,174,7.0,17.0,53,0.00,OVC,,0.00,WeatherDisplay:10.37,2013-02-10 19:00:00,
2013-02-10 14:10:00,55.7,39.8,30.11,South,174,5.0,18.0,55,0.00,OVC,,0.00,WeatherDisplay:10.37,2013-02-10 19:10:00,
2013-02-10 14:20:00,54.7,41.9,30.10,South,176,8.0,15.0,62,0.01,RA,,0.01,WeatherDisplay:10.37,2013-02-10 19:20:00,
2013-02-10 14:30:00,53.7,43.4,30.10,South,191,6.0,13.0,68,0.01,RA,,0.02,WeatherDisplay:10.37,2013-02-10 19:30:00,
2013-02-10 14:40:00,53.0,44.5,30.10,South,189,7.0,17.0,73,0.00,-RA,,0.02,WeatherDisplay:10.37,2013-02-10 19:40:00,
2013-02-10 14:50:00,52.2,45.2,30.09,South,178,1.0,12.0,77,0.01,-RA,,0.03,WeatherDisplay:10.37,2013-02-10 19:50:00,
2013-02-10 15:00:00,52.1,45.1,30.08,South,179,6.0,13.0,77,0.00,-RA,,0.03,WeatherDisplay:10.37,2013-02-10 20:00:00,
2013-02-10 15:10:00,52.1,45.4,30.08,South,185,5.0,14.0,78,0.01,-RA,,0.04,WeatherDisplay:10.37,2013-02-10 20:10:00,
2013-02-10 15:20:00,51.5,46.2,30.08,SSW,201,2.0,14.0,82,0.02,-RA,,0.06,WeatherDisplay:10.37,2013-02-10 20:20:00,
2013-02-10 15:30:00,50.7,46.3,30.08,SSW,193,5.0,12.0,85,0.04,-RA,,0.10,WeatherDisplay:10.37,2013-02-10 20:30:00,
2013-02-10 15:40:00,50.1,46.4,30.08,SSW,198,2.0,12.0,87,0.04,-RA,,0.14,WeatherDisplay:10.37,2013-02-10 20:40:00,
2013-02-10 15:50:00,49.8,46.4,30.07,SSW,200,5.0,12.0,88,0.02,RA,,0.16,WeatherDisplay:10.37,2013-02-10 20:50:00,
2013-02-10 16:00:00,49.6,46.5,30.08,SSW,192,6.0,12.0,89,0.02,RA,,0.18,WeatherDisplay:10.37,2013-02-10 21:00:00,
2013-02-10 16:10:00,49.4,46.6,30.08,SSW,195,6.0,12.0,90,0.03,-RA,,0.21,WeatherDisplay:10.37,2013-02-10 21:10:00,
2013-02-10 16:20:00,49.2,46.7,30.08,South,189,5.0,15.0,91,0.05,-RA,,0.26,WeatherDisplay:10.37,2013-02-10 21:20:00,
2013-02-10 16:30:00,49.2,46.7,30.08,SSW,203,7.0,17.0,91,0.05,-RA,,0.32,WeatherDisplay:10.37,2013-02-10 21:30:00,
2013-02-10 16:40:00,49.2,47.0,30.08,SSW,199,6.0,15.0,92,0.06,RA,,0.37,WeatherDisplay:10.37,2013-02-10 21:40:00,
2013-02-10 16:50:00,49.2,47.0,30.08,South,184,8.0,16.0,92,0.04,RA,,0.41,WeatherDisplay:10.37,2013-02-10 21:50:00,
2013-02-10 17:00:00,49.2,47.0,30.08,SSW,197,6.0,14.0,92,0.05,RA,,0.46,WeatherDisplay:10.37,2013-02-10 22:00:00,
2013-02-10 17:10:00,49.3,47.3,30.08,SSW,208,6.0,13.0,93,0.05,RA,,0.51,WeatherDisplay:10.37,2013-02-10 22:10:00,
2013-02-10 17:20:00,49.3,47.4,30.10,SSW,203,6.0,13.0,93,0.03,RA,,0.54,WeatherDisplay:10.37,2013-02-10 22:20:00,
2013-02-10 17:30:00,49.4,47.5,30.13,SW,230,8.0,15.0,93,0.04,RA,,0.58,WeatherDisplay:10.37,2013-02-10 22:30:00,
2013-02-10 17:40:00,49.6,47.7,30.15,WSW,237,7.0,14.0,93,0.03,RA,,0.61,WeatherDisplay:10.37,2013-02-10 22:40:00,
2013-02-10 17:50:00,49.9,47.7,30.15,SW,232,6.0,20.0,92,0.04,RA,,0.65,WeatherDisplay:10.37,2013-02-10 22:50:00,
2013-02-10 18:00:00,49.9,48.0,30.13,SW,216,5.0,14.0,93,0.04,RA,,0.69,WeatherDisplay:10.37,2013-02-10 23:00:00,
2013-02-10 18:10:00,49.8,47.9,30.11,SSW,206,6.0,18.0,93,0.03,RA,,0.72,WeatherDisplay:10.37,2013-02-10 23:10:00,
2013-02-10 18:20:00,50.0,48.1,30.11,South,190,9.0,20.0,93,0.01,RA,,0.73,WeatherDisplay:10.37,2013-02-10 23:20:00,
2013-02-10 18:30:00,50.0,48.1,30.12,South,191,8.0,20.0,93,0.01,RA,,0.74,WeatherDisplay:10.37,2013-02-10 23:30:00,
2013-02-10 18:40:00,50.0,48.3,30.12,SSW,198,8.0,21.0,94,0.01,RA,,0.75,WeatherDisplay:10.37,2013-02-10 23:40:00,
2013-02-10 18:50:00,50.0,48.3,30.13,SSW,198,6.0,17.0,94,0.01,-RA,,0.76,WeatherDisplay:10.37,2013-02-10 23:50:00,
2013-02-10 19:01:00,50.1,48.4,30.13,SSW,201,9.0,18.0,94,0.01,-RA,,0.77,WeatherDisplay:10.37,2013-02-11 00:01:00,
2013-02-10 19:10:00,50.1,48.4,30.14,SSW,206,13.0,20.0,94,0.02,-RA,,0.79,WeatherDisplay:10.37,2013-02-11 00:10:00,
2013-02-10 19:20:00,50.1,48.4,30.13,South,174,6.0,16.0,94,0.02,-RA,,0.81,WeatherDisplay:10.37,2013-02-11 00:20:00,
2013-02-10 19:31:00,50.1,48.4,30.14,SSW,199,7.0,16.0,94,0.02,-RA,,0.83,WeatherDisplay:10.37,2013-02-11 00:31:00,
2013-02-10 19:40:00,50.0,48.3,30.11,SSW,195,9.0,14.0,94,0.02,-RA,,0.85,WeatherDisplay:10.37,2013-02-11 00:40:00,
2013-02-10 19:50:00,49.9,48.2,30.12,SSW,198,5.0,18.0,94,0.02,-RA,,0.87,WeatherDisplay:10.37,2013-02-11 00:50:00,
2013-02-10 20:01:00,49.9,48.2,30.09,SSW,197,10.0,17.0,94,0.01,-RA,,0.88,WeatherDisplay:10.37,2013-02-11 01:01:00,
2013-02-10 20:10:00,49.9,48.5,30.10,SSW,200,7.0,18.0,95,0.01,-RA,,0.89,WeatherDisplay:10.37,2013-02-11 01:10:00,
2013-02-10 20:20:00,49.8,48.5,30.09,South,190,9.0,20.0,95,0.01,-RA,,0.90,WeatherDisplay:10.37,2013-02-11 01:20:00,
2013-02-10 20:31:00,49.8,48.4,30.07,SSW,202,8.0,20.0,95,0.00,-RA,,0.90,WeatherDisplay:10.37,2013-02-11 01:31:00,
2013-02-10 20:40:00,49.9,48.5,30.06,SSW,202,7.0,18.0,95,0.01,-RA,,0.91,WeatherDisplay:10.37,2013-02-11 01:40:00,
2013-02-10 20:50:00,50.1,48.7,30.06,SSW,202,8.0,21.0,95,0.00,-RA,,0.91,WeatherDisplay:10.37,2013-02-11 01:50:00,
2013-02-10 21:01:00,50.2,48.8,30.07,SW,217,8.0,15.0,95,0.00,-RA,,0.91,WeatherDisplay:10.37,2013-02-11 02:01:00,
2013-02-10 21:10:00,50.3,48.9,30.06,SSW,210,3.0,18.0,95,0.00,OVC,,0.91,WeatherDisplay:10.37,2013-02-11 02:10:00,
2013-02-10 21:20:00,50.5,49.4,30.06,SSW,202,5.0,12.0,96,0.00,OVC,,0.91,WeatherDisplay:10.37,2013-02-11 02:20:00,
2013-02-10 21:31:00,50.8,49.7,30.05,SSW,201,6.0,14.0,96,0.00,OVC,,0.91,WeatherDisplay:10.37,2013-02-11 02:31:00,
2013-02-10 21:40:00,50.9,49.5,30.06,SW,219,6.0,9.0,95,0.00,BKN,,0.91,WeatherDisplay:10.37,2013-02-11 02:40:00,
2013-02-10 21:50:00,51.0,49.6,30.06,SW,221,5.0,12.0,95,0.00,SCT,,0.91,WeatherDisplay:10.37,2013-02-11 02:50:00,
2013-02-10 22:01:00,51.0,49.6,30.05,SW,214,7.0,14.0,95,0.00,SCT,,0.91,WeatherDisplay:10.37,2013-02-11 03:01:00,
2013-02-10 22:10:00,51.1,49.7,30.05,SSW,213,8.0,13.0,95,0.00,SCT,,0.91,WeatherDisplay:10.37,2013-02-11 03:10:00,
2013-02-10 22:20:00,51.2,49.8,30.05,SSW,203,6.0,13.0,95,0.00,SCT,,0.91,WeatherDisplay:10.37,2013-02-11 03:20:00,
2013-02-10 22:31:00,51.3,49.9,30.04,SW,221,6.0,16.0,95,0.00,SCT,,0.91,WeatherDisplay:10.37,2013-02-11 03:31:00,
2013-02-10 22:40:00,51.4,50.0,30.04,SSW,213,3.0,14.0,95,0.00,SCT,,0.91,WeatherDisplay:10.37,2013-02-11 03:40:00,
2013-02-10 22:50:00,51.4,50.0,30.04,SSW,201,6.0,10.0,95,0.00,CLR,,0.91,WeatherDisplay:10.37,2013-02-11 03:50:00,
2013-02-10 23:01:00,51.4,50.0,30.03,SSW,202,6.0,12.0,95,0.00,CLR,,0.91,WeatherDisplay:10.37,2013-02-11 04:01:00,
2013-02-10 23:10:00,51.4,50.0,30.03,SW,216,3.0,9.0,95,0.00,CLR,,0.91,WeatherDisplay:10.37,2013-02-11 04:10:00,
2013-02-10 23:20:00,51.4,50.0,30.03,SW,223,5.0,13.0,95,0.00,CLR,,0.91,WeatherDisplay:10.37,2013-02-11 04:20:00,
2013-02-10 23:31:00,51.5,49.8,30.04,SW,215,7.0,12.0,94,0.00,CLR,,0.91,WeatherDisplay:10.37,2013-02-11 04:31:00,
2013-02-10 23:40:00,51.7,50.0,30.05,SSW,196,6.0,13.0,94,0.00,CLR,,0.91,WeatherDisplay:10.37,2013-02-11 04:40:00,
2013-02-10 23:50:00,51.8,50.1,30.06,SSW,211,9.0,20.0,94,0.00,BKN,,0.91,WeatherDisplay:10.37,2013-02-11 04:50:00,